Showing default

6GSTARLAB, 66683

Orbit data source: Space-Track

6GSTARLAB, 66683 is a Spanish payload satellite in SSO that was launched on Fri, 28 Nov 2025 UTC via an FALCON 9 launch vehicle from the Air Force Western Test Range (AFWTR). Payload-class satellites include a variety of spacecraft equipped with specific instruments for various scientific and technological missions. These include communications satellites like Starlink; space stations such as the ISS; scientific satellites like the Hubble; Earth observation satellites from companies like Planet Labs, Umbra, and HawkEye 360; GPS; miniature CubeSats for education and research; and military/defense satellites.

Loading next visibility...
Identifier
66683, 2025-276T
Orbit
SSO
Country
Flag of ESES / SPN
Related business
Manufacturer
Open Cosmos
Mission
Operational Commercial Communications
Bus & Motor
CUBESAT 6U, Unknown motor
Mass
12 kg wet, 12 kg dry
Launch date (UTC)
2025-11-28 (9 months ago)
Launch vehicle
FALCON 9
Launch site
Air Force Western Test Range (AFWTR)
Object type
Payload
Rocket body
Debris
Shape & HBR
Box + 2 Pan, 1.0 m
Radar Cross Section
0.104 m², Medium (>0.1 m² and < 1m²)

Expand to show TLE details & history
Last TLE update: 18 hours ago

TLE from 18 hours ago
0 6GSTARLAB
1 66683U 25276T   26238.16819345  .00002634  00000-0  13002-3 0  9993
2 66683  97.4202 310.2812 0007492 107.3711 252.8343 15.18732394 41021
Epoch: 2026-08-26T04:02Z
TLE epoch observation values (Epoch: 2026-08-26T04:02:11.914Z)
Latitude
-0.00003°
Longitude
-84.6935°
Altitude
514.286 km
Speed
7.606 km/s
True Right ascension
20h 41m 07s
True Declination
0° 00' 00"
Sunlit
Object was in full shadow at epoch
Visualization orbit readout
Latitude
Unknown
Longitude
Unknown
Altitude
Unknown
Speed
Unknown
Apparent Right ascension
Unknown
Apparent Declination
Unknown
Sunlit
N/A
Visualization observer readout
Local Sidereal Time
13:30:46
Azimuth
Unknown
Elevation
Unknown
Doppler factor
Unknown
Orbital elements
Apogee altitude
511.797 km
Perigee altitude
501.481 km
Semi-major axis
6,884.776 km
Eccentricity
0.00075
Inclination
97.4202°
RAAN
310.2812°
Arg. of periapsis
107.3711°
True anomaly
252.75229°
Mean anomaly
252.8343°
Eccentric anomaly
252.7933°
Mean motion
3.79934 °/min
Orbital period
94.75 mins
BSTAR
0.00013002
Loading maneuver chart data...
Computing Atmospheric mass density...
Loading historical data...
Loading historical data...
Loading historical data...
Loading historical data...
Loading historical data...
Loading historical data...
Loading historical data...

Documentation

Showing up to 5 results
|